Temperature
9 10 11 11 11 12 12 12 13 13 12 11 12 13 13 12 12 12 12 11 11 10 10 10 11 11 11 10 10 11 10 10 10 10 10 10 10 10 10 10 10 11 11 11
10 10 11 11 10 10 11 12 12 12 11 11 12 12 13 12 12 12 12 11 11 10 10 10 10 11 10 10 10 10 10 10 10 10 10 10 10 10 10 10 10 10 10 10
11 11 10 10 10 10 11 11 12 11 10 10 11 13 14 12 11 11 11 11 11 10 10 10 10 10 10 10 10 10 10 10 10 10 10 10 9 9 9 9 9 9 10 10
10 10 9 9 10 10 11 11 11 10 11 12 11 13 14 13 12 12 11 11 11 10 10 10 10 10 10 10 10 10 10 10 10 10 10 9 9 9 9 9 9 9 9 9
10 9 9 10 10 10 11 10 10 10 11 11 11 12 14 13 12 13 12 11 11 10 10 10 10 10 11 10 10 10 10 9 9 9 9 9 9 9 9 9 9 9 9 9
9 8 9 9 9 9 9 9 9 10 10 11 12 12 14 14 13 13 13 11 10 10 9 9 10 10 10 10 10 10 9 9 9 9 9 9 9 9 9 9 9 9 9 8
9 8 8 8 9 9 9 10 10 10 10 12 11 11 14 14 13 13 12 11 10 9 9 9 9 10 10 10 10 10 9 9 9 9 9 8 8 8 8 8 8 8 8 8
9 9 8 8 9 9 9 11 11 11 12 13 10 11 14 12 11 10 10 10 9 9 9 8 9 9 9 10 10 9 9 9 9 8 8 8 8 8 8 8 8 8 8 8
9 10 8 8 8 9 9 10 11 11 10 11 12 12 12 11 10 10 9 9 8 8 8 8 8 9 9 9 9 9 9 9 8 8 8 8 8 8 8 7 7 7 7 7
9 9 8 7 8 8 9 10 9 10 10 12 13 13 14 12 11 10 10 9 9 8 8 8 8 8 8 8 8 8 8 8 8 8 8 8 8 7 7 7 7 7 7 7
8 8 7 7 8 8 8 8 9 10 11 12 13 14 13 12 11 10 10 9 8 8 8 8 8 8 8 8 8 8 8 8 8 8 7 7 7 7 7 7 7 7 6 6
6 7 7 7 7 8 9 9 9 10 9 10 12 13 10 10 10 9 9 8 8 7 7 7 7 8 7 7 7 8 7 7 7 7 7 7 7 7 6 6 6 6 6 6
5 6 7 7 7 6 7 8 8 9 9 9 10 12 9 9 9 8 8 7 7 6 7 7 7 7 7 7 7 7 7 7 7 7 7 7 6 6 6 6 6 6 6 5
5 6 7 9 9 7 7 7 7 8 8 9 10 11 10 9 9 8 7 7 6 6 6 6 6 7 7 6 6 6 6 6 6 6 6 6 6 6 6 6 5 5 5 5
5 5 6 7 7 7 7 7 7 7 9 9 10 10 10 10 9 8 7 6 6 6 6 6 6 6 6 6 6 6 6 6 6 6 6 6 5 5 5 5 5 5 5 5
4 4 5 5 6 6 6 7 7 7 8 8 8 9 10 9 7 7 6 6 6 5 5 5 6 6 6 6 5 5 5 5 5 5 5 5 5 5 5 4 4 4 4 4
3 3 4 5 5 5 6 7 7 7 7 8 8 9 8 7 7 7 6 5 5 5 5 5 5 5 5 5 5 5 5 5 5 5 4 4 4 4 4 4 4 4 4 3
3 3 3 4 4 5 7 6 7 7 7 7 7 7 7 6 5 5 5 5 4 4 4 5 5 5 5 5 5 5 4 4 4 4 4 4 4 4 3 3 3 3 3 3
3 3 3 3 5 5 6 5 5 5 5 5 5 5 5 4 4 4 4 4 4 4 4 4 4 5 5 4 4 4 4 4 4 4 4 4 3 3 3 3 3 3 2 2
2 2 3 3 4 5 6 4 4 5 5 5 5 5 4 4 5 5 3 3 3 3 3 4 4 4 4 4 4 4 3 3 3 3 3 3 3 3 3 2 2 2 2 2
1 2 2 3 3 5 4 3 4 5 5 4 4 4 4 4 4 3 2 2 2 3 3 3 3 3 3 3 3 3 3 3 3 3 3 3 2 2 2 2 2 1 1 1
2 2 2 3 3 4 3 3 4 4 3 2 2 2 2 2 1 1 1 1 1 2 2 2 2 2 2 2 2 2 2 2 2 2 2 2 2 2 1 1 1 1 1 1
1 2 2 3 3 2 1 1 1 1 1 2 2 1 1 1 1 0 0 0 1 1 1 1 1 1 2 2 2 2 2 2 2 2 1 1 1 1 1 1 1 0 0 -0
0 -0 1 1 1 0 -0 -0 0 1 1 1 1 1 1 0 0 0 0 -0 0 0 1 1 1 1 1 1 1 1 1 1 1 1 1 1 1 0 0 0 0 -0 -0 -1
0 -0 0 0 0 -0 -0 -0 0 0 0 -0 0 -0 0 -0 -0 -0 -0 -0 -0 -0 -0 -0 0 0 0 0 0 0 0 0 0 0 -0 -0 -0 -0 -1 -1 -1 -1 -1 -1
-1 -1 -0 0 0 0 -0 -1 -0 -1 -1 -1 -1 -1 -1 -1 -1 -1 -1 -1 -1 -1 -1 -1 -1 -0 -0 -0 -0 -0 -0 -0 -1 -1 -1 -1 -1 -1 -1 -1 -1 -1 -1 -1
Wind_Speed
6 7 10 12 14 8 7 8 9 7 3 6 11 13 11 7 7 8 7 7 7 7 6 6 6 7 7 7 7 7 7 8 7 6 5 4 4 4 3 3 4 4 4 4
7 12 13 9 10 9 9 9 9 5 2 5 9 13 10 9 9 10 9 8 8 6 6 6 7 7 8 8 7 7 7 8 8 6 5 4 4 3 4 3 3 3 4 4
13 5 8 9 9 11 12 12 10 6 2 4 6 8 8 6 7 8 8 8 8 9 8 8 8 8 8 8 8 7 8 8 8 8 5 5 4 4 3 4 3 3 3 4
12 8 7 10 11 11 10 9 8 6 5 4 4 5 6 6 7 7 8 8 8 8 8 8 8 8 8 8 7 7 7 8 8 8 8 9 7 6 5 5 4 4 4 4
8 8 10 11 11 12 5 3 6 6 6 5 5 6 6 5 8 9 9 9 8 8 8 8 8 8 8 8 7 8 8 8 8 9 9 9 7 5 5 5 5 4 4 3
7 5 7 7 6 9 5 5 4 3 5 7 8 8 7 6 8 8 9 8 7 7 7 7 7 7 7 7 8 8 9 9 9 9 9 9 9 8 7 7 6 5 3 3
8 7 5 5 6 8 7 6 3 4 6 7 6 8 8 4 4 6 7 7 6 6 7 7 7 8 7 8 8 8 10 9 9 9 9 9 8 8 8 7 6 5 4 3
10 9 10 8 8 9 12 10 7 6 7 5 5 9 5 1 2 3 4 5 5 5 6 7 8 8 7 8 9 9 10 9 9 8 8 7 7 6 5 6 6 5 4 4
9 8 6 9 6 8 10 10 5 2 2 4 6 6 5 3 3 4 4 5 5 5 5 6 6 7 7 8 9 9 9 9 8 8 8 8 7 6 6 6 5 4 4 3
6 6 5 6 6 5 5 7 6 6 6 7 7 8 6 7 7 6 5 5 5 5 5 5 6 6 6 7 7 8 8 8 8 7 7 6 6 6 6 5 5 5 4 4
5 5 5 6 11 12 8 8 7 6 5 6 7 5 2 5 6 6 5 5 4 5 5 5 5 6 6 6 7 7 7 7 7 6 6 6 6 6 5 5 5 5 5 5
5 4 5 7 4 6 9 10 11 8 7 6 7 5 2 3 4 4 4 3 3 4 4 5 5 6 6 7 7 7 7 7 6 6 6 6 5 5 5 5 5 4 5 5
5 5 4 4 4 5 8 9 11 8 5 8 9 6 2 2 3 3 3 3 3 4 5 5 5 5 6 6 6 6 6 6 6 6 6 5 5 5 5 5 4 4 5 5
4 6 10 12 7 8 9 12 13 10 8 11 14 11 6 5 4 3 3 4 3 4 5 5 5 5 5 5 5 5 5 5 5 5 5 5 5 5 5 4 4 5 5 5
4 7 10 11 9 9 11 14 16 17 16 13 14 14 13 9 7 4 3 4 4 4 4 4 5 4 5 4 4 4 5 5 5 4 4 4 4 4 4 4 4 4 5 5
4 6 6 8 9 10 12 17 19 19 17 17 15 15 8 6 5 5 5 5 4 4 4 4 4 4 4 4 4 5 4 4 4 4 4 4 3 4 4 4 4 4 4 4
5 5 5 8 7 7 13 15 17 14 14 14 16 13 6 6 7 8 6 6 5 4 4 4 4 4 4 4 4 4 4 4 4 4 4 3 4 4 4 4 5 5 5 5
9 8 5 5 6 11 6 4 8 12 11 10 7 6 7 6 4 5 5 5 4 3 3 4 3 3 3 3 3 3 4 4 4 4 4 4 4 4 4 5 5 6 5 5
10 9 5 5 7 8 5 3 5 7 8 7 8 6 4 2 1 3 3 3 3 3 2 2 2 2 3 3 3 3 4 4 4 4 4 4 4 4 5 5 6 5 5 6
5 7 6 5 6 7 3 2 4 5 7 4 6 7 6 5 4 4 2 1 1 0 1 2 2 2 3 2 3 4 4 4 4 4 4 4 4 5 5 5 5 5 5 6
3 5 7 7 7 6 3 3 3 7 4 3 6 6 7 6 3 2 2 1 1 1 2 3 3 2 2 2 3 3 3 3 3 3 3 3 4 5 5 5 5 5 5 5
4 4 5 5 6 5 2 2 4 2 1 3 4 4 3 3 4 3 2 2 2 2 2 2 2 2 1 1 2 2 3 2 2 2 3 4 4 4 4 4 5 5 5 6
3 3 2 3 2 3 2 1 2 1 1 2 3 3 5 5 4 3 2 1 2 2 2 2 2 2 1 0 1 2 2 1 2 2 3 4 4 4 4 5 5 5 5 5
2 3 2 1 2 3 4 4 3 3 3 3 3 4 5 4 3 2 2 1 1 2 1 1 1 1 1 1 1 2 2 2 2 3 4 4 4 4 4 4 4 5 5 6
2 1 1 1 2 3 4 4 4 5 5 5 5 4 3 4 3 2 1 1 1 1 1 1 1 0 1 2 2 3 2 2 3 4 4 4 4 5 5 5 5 6 7 7
2 1 1 2 2 1 2 3 3 5 4 4 4 4 3 3 2 1 1 1 1 1 1 1 1 2 2 2 3 3 3 3 3 4 4 4 4 4 4 5 5 6 8 8
Wind_Direction
188 204 214 213 216 238 231 229 242 243 231 239 246 256 255 247 236 233 228 225 223 224 217 198 191 180 176 178 180 173 168 161 155 151 153 158 156 148 140 137 134 141 144 145
194 223 226 221 213 224 227 234 244 249 230 247 262 262 257 242 233 231 229 224 218 213 204 188 182 179 181 181 179 174 175 170 168 163 160 165 153 149 143 145 138 141 146 151
211 219 209 205 206 216 226 231 236 240 261 241 274 265 236 226 224 230 231 226 218 210 202 189 182 182 183 182 180 177 182 177 172 163 151 144 140 139 147 158 156 154 153 157
226 223 194 205 214 213 230 227 230 230 227 236 236 266 240 215 215 220 220 214 211 207 203 196 185 183 184 184 181 178 181 178 171 167 169 171 171 170 176 169 164 160 163 163
215 203 202 212 217 208 223 194 205 218 226 249 230 246 255 206 222 220 216 211 208 202 199 197 193 187 184 180 177 178 177 179 178 177 177 177 175 169 161 159 160 162 164 166
229 208 214 219 210 199 164 142 148 188 217 242 225 226 258 215 220 213 207 205 204 200 199 199 195 186 181 177 175 176 176 177 178 177 176 177 173 168 164 167 167 166 165 171
214 209 200 187 172 174 183 169 177 196 212 235 193 221 248 237 221 220 208 203 196 191 190 191 190 186 182 178 174 174 169 171 173 174 176 179 178 175 175 174 174 170 171 182
208 214 197 190 194 186 194 198 200 211 221 218 195 228 244 246 231 227 213 194 180 179 181 185 186 182 179 173 172 173 173 174 174 175 179 182 181 179 178 178 178 179 181 187
212 215 178 190 194 187 185 207 229 222 218 231 221 237 257 219 208 192 187 182 183 180 178 178 177 174 172 170 172 174 173 173 175 176 178 179 178 177 180 182 184 184 183 180
225 218 190 180 172 197 210 181 181 198 204 231 234 232 223 197 203 193 188 189 187 179 175 173 167 168 168 167 167 171 173 172 172 174 178 178 177 178 181 184 187 186 185 186
225 206 181 183 198 191 175 185 200 201 226 230 239 230 192 200 194 189 190 193 187 175 172 168 160 160 159 158 161 166 170 170 170 171 175 175 175 178 182 188 191 191 190 194
214 210 215 214 212 229 208 201 194 200 211 225 246 245 103 214 192 182 177 172 170 163 160 157 153 151 155 158 161 166 169 170 171 171 173 175 176 180 186 193 195 193 196 202
198 201 200 200 196 197 213 209 210 216 209 212 226 233 118 163 162 169 164 157 153 153 151 150 150 153 156 157 160 164 166 167 167 167 170 174 180 187 193 196 195 195 201 207
228 224 226 230 228 190 210 212 208 205 215 225 231 237 228 215 206 200 183 169 163 162 159 157 160 161 161 161 161 162 164 165 167 169 173 181 188 192 196 197 199 201 205 209
228 239 243 257 258 224 227 223 214 218 226 231 239 239 238 233 231 220 197 177 171 175 174 170 171 169 167 167 170 172 172 168 170 174 182 190 192 192 195 197 203 206 210 214
236 245 247 254 248 237 243 236 226 227 231 239 247 253 252 237 214 217 211 196 195 201 197 186 182 181 178 178 178 178 179 174 175 181 190 192 194 198 203 206 208 212 219 221
217 219 227 247 243 248 247 234 222 221 224 226 235 241 214 216 212 216 211 204 211 213 212 200 195 194 193 189 181 180 178 171 177 185 191 195 199 206 212 211 214 219 223 227
221 223 231 238 226 232 242 244 224 222 227 226 235 226 210 217 226 226 206 196 208 214 213 203 198 190 188 180 175 171 168 175 184 191 198 202 206 213 215 215 221 226 226 228
220 212 217 218 234 254 262 244 211 214 230 227 223 218 213 178 202 219 194 193 209 223 214 195 190 181 175 173 166 166 174 183 194 202 207 212 214 220 224 227 231 233 231 234
214 214 217 215 227 239 256 275 244 206 230 222 208 204 197 180 215 218 162 162 175 161 146 144 145 153 159 162 165 174 186 194 209 217 222 221 221 225 230 236 240 240 235 238
211 219 222 227 235 256 302 300 185 204 237 191 198 198 200 212 220 169 150 133 110 112 119 121 124 134 149 157 168 182 200 217 226 231 233 234 232 232 236 239 240 238 238 241
215 212 221 224 228 246 348 156 202 273 60 152 165 178 176 143 122 125 119 111 97 103 107 117 118 109 105 148 171 194 225 237 233 235 240 244 245 243 238 236 241 241 239 243
233 238 229 215 238 355 0 320 338 31 89 113 136 135 128 125 130 127 118 106 93 100 102 109 112 90 64 107 190 220 259 263 247 249 254 257 256 251 244 241 242 245 243 244
282 298 235 234 315 1 6 15 41 58 65 72 92 109 119 121 121 111 99 98 92 88 93 99 95 75 7 357 318 286 298 286 258 260 266 264 258 257 253 250 243 242 244 247
283 253 265 274 323 17 17 27 55 66 71 77 78 78 100 107 100 102 101 98 90 75 74 87 88 360 327 334 324 312 304 288 270 268 265 262 257 255 257 258 256 253 252 250
309 270 251 269 307 340 335 12 56 67 62 66 72 62 60 74 81 86 78 60 53 36 32 27 354 333 323 323 317 314 303 277 265 266 266 264 260 261 262 266 274 264 254 260
Height
1495 1495 1490 1488 1490 1489 1488 1486 1485 1485 1488 1489 1484 1480 1478 1480 1482 1482 1482 1483 1484 1484 1485 1486 1487 1489 1491 1493 1495 1496 1497 1499 1502 1504 1506 1509 1511 1513 1515 1517 1518 1520 1522 1524
1492 1487 1484 1487 1489 1491 1489 1487 1484 1486 1489 1488 1483 1478 1475 1476 1477 1478 1478 1480 1480 1481 1482 1483 1485 1487 1489 1491 1492 1494 1495 1498 1500 1503 1506 1507 1510 1511 1514 1515 1517 1518 1520 1522
1481 1481 1484 1486 1487 1488 1486 1484 1483 1485 1488 1487 1484 1473 1469 1471 1474 1475 1475 1476 1477 1478 1479 1481 1482 1484 1486 1488 1490 1492 1494 1496 1499 1501 1504 1506 1508 1509 1511 1513 1515 1516 1518 1520
1480 1481 1483 1483 1482 1483 1481 1483 1485 1486 1485 1480 1482 1473 1463 1465 1469 1470 1471 1472 1473 1475 1476 1478 1479 1481 1483 1486 1488 1490 1492 1494 1497 1499 1501 1503 1505 1507 1509 1511 1513 1515 1516 1517
1476 1479 1479 1478 1477 1481 1480 1483 1484 1485 1483 1481 1478 1475 1459 1463 1463 1463 1465 1468 1469 1471 1473 1475 1477 1479 1480 1483 1485 1487 1490 1492 1494 1497 1500 1501 1503 1506 1507 1509 1511 1513 1514 1515
1475 1478 1477 1475 1478 1480 1483 1484 1485 1485 1483 1480 1471 1471 1456 1455 1455 1456 1460 1464 1466 1468 1470 1472 1474 1476 1478 1480 1482 1485 1487 1489 1492 1494 1497 1499 1501 1503 1505 1507 1508 1510 1512 1513
1472 1474 1475 1476 1476 1479 1479 1478 1481 1481 1479 1467 1469 1468 1453 1450 1454 1455 1458 1460 1463 1464 1466 1468 1470 1472 1474 1477 1479 1481 1484 1486 1489 1491 1494 1496 1498 1500 1502 1504 1505 1507 1509 1511
1463 1464 1468 1470 1469 1470 1472 1469 1469 1467 1462 1458 1471 1461 1448 1452 1455 1457 1458 1459 1460 1462 1464 1465 1467 1469 1471 1474 1476 1479 1481 1484 1486 1489 1491 1493 1496 1498 1499 1501 1503 1505 1506 1508
1458 1457 1464 1466 1468 1467 1468 1468 1465 1465 1467 1461 1454 1452 1449 1451 1453 1455 1456 1457 1458 1460 1461 1463 1465 1467 1469 1471 1473 1476 1479 1481 1484 1486 1488 1491 1493 1495 1497 1499 1500 1502 1504 1505
1457 1458 1462 1465 1467 1468 1466 1464 1468 1466 1464 1454 1446 1445 1439 1445 1447 1451 1453 1455 1456 1458 1459 1461 1463 1465 1467 1469 1472 1474 1477 1479 1481 1483 1486 1488 1490 1492 1494 1496 1497 1499 1501 1502
1459 1458 1462 1463 1460 1458 1465 1466 1462 1458 1455 1449 1443 1438 1438 1440 1444 1447 1450 1452 1454 1456 1458 1459 1461 1463 1465 1467 1470 1472 1474 1477 1479 1481 1483 1485 1487 1489 1491 1493 1495 1496 1497 1498
1459 1456 1455 1455 1457 1458 1455 1453 1455 1455 1456 1453 1443 1439 1442 1443 1445 1447 1449 1451 1453 1455 1456 1458 1460 1461 1463 1466 1468 1470 1472 1474 1476 1479 1481 1483 1485 1487 1488 1490 1491 1492 1494 1495
1458 1456 1453 1452 1458 1460 1456 1454 1453 1451 1451 1451 1446 1439 1443 1444 1445 1447 1449 1451 1452 1453 1455 1457 1458 1460 1462 1464 1466 1468 1470 1472 1474 1476 1478 1480 1481 1483 1485 1486 1487 1489 1490 1491
1456 1451 1445 1437 1434 1445 1450 1450 1451 1452 1450 1443 1438 1435 1440 1442 1444 1446 1448 1450 1451 1452 1454 1455 1457 1458 1460 1462 1464 1465 1467 1469 1471 1473 1475 1476 1478 1479 1481 1482 1484 1485 1486 1487
1453 1448 1444 1441 1440 1441 1442 1442 1446 1447 1440 1439 1433 1435 1435 1438 1442 1445 1447 1448 1450 1451 1452 1453 1455 1457 1458 1460 1461 1463 1465 1466 1468 1470 1471 1473 1475 1476 1477 1479 1480 1481 1482 1483
1452 1448 1446 1443 1441 1440 1439 1436 1437 1438 1438 1436 1435 1434 1435 1439 1443 1445 1446 1447 1448 1449 1450 1451 1453 1454 1455 1457 1458 1460 1462 1463 1465 1466 1468 1469 1471 1472 1473 1474 1476 1476 1477 1478
1449 1448 1446 1438 1439 1439 1434 1428 1429 1430 1430 1431 1430 1430 1437 1439 1440 1441 1443 1444 1445 1446 1447 1448 1450 1451 1453 1454 1456 1457 1459 1460 1462 1463 1465 1466 1467 1468 1469 1470 1471 1472 1473 1474
1445 1445 1444 1440 1439 1435 1422 1425 1425 1425 1427 1429 1429 1431 1434 1436 1438 1440 1441 1442 1443 1444 1445 1446 1447 1449 1450 1452 1453 1455 1456 1457 1459 1460 1461 1462 1463 1464 1465 1466 1467 1468 1469 1469
1440 1441 1440 1437 1429 1422 1423 1426 1426 1426 1425 1428 1429 1431 1434 1436 1437 1438 1439 1440 1441 1442 1442 1443 1445 1446 1448 1449 1451 1452 1454 1455 1456 1457 1458 1459 1460 1460 1461 1462 1463 1463 1464 1464
1438 1438 1437 1433 1428 1422 1420 1424 1424 1426 1424 1427 1427 1428 1431 1433 1434 1435 1438 1438 1439 1440 1440 1441 1442 1444 1445 1447 1448 1450 1451 1452 1452 1453 1454 1455 1456 1456 1457 1457 1458 1458 1458 1459
1436 1435 1433 1429 1426 1420 1423 1424 1424 1424 1420 1424 1425 1426 1429 1430 1431 1434 1436 1437 1437 1438 1439 1440 1441 1442 1444 1445 1446 1447 1448 1449 1450 1450 1451 1451 1452 1452 1452 1453 1453 1453 1453 1453
1430 1429 1429 1427 1426 1424 1425 1424 1423 1422 1423 1423 1424 1426 1428 1429 1431 1433 1434 1435 1436 1437 1438 1438 1439 1441 1442 1443 1444 1444 1445 1446 1446 1447 1447 1447 1448 1448 1448 1448 1448 1448 1448 1448
1431 1429 1426 1426 1427 1428 1427 1426 1425 1424 1424 1424 1425 1427 1428 1429 1431 1433 1434 1435 1435 1436 1437 1437 1438 1439 1440 1441 1442 1442 1442 1443 1443 1443 1443 1443 1444 1444 1444 1443 1443 1443 1443 1442
1432 1432 1430 1429 1428 1429 1428 1427 1426 1426 1426 1426 1427 1428 1429 1430 1431 1432 1433 1434 1435 1436 1436 1437 1437 1438 1439 1439 1440 1440 1440 1440 1440 1440 1440 1440 1439 1439 1439 1439 1438 1438 1437 1437
1432 1432 1430 1429 1430 1430 1429 1429 1428 1428 1428 1428 1429 1430 1431 1431 1432 1433 1433 1434 1434 1435 1436 1436 1436 1437 1437 1437 1437 1438 1437 1437 1437 1436 1436 1436 1436 1435 1434 1434 1433 1433 1433 1432
1434 1433 1431 1429 1431 1431 1431 1431 1430 1429 1430 1430 1430 1431 1432 1432 1433 1433 1433 1434 1434 1434 1435 1435 1435 1435 1435 1435 1435 1435 1435 1434 1433 1433 1432 1432 1431 1430 1430 1429 1428 1427 1427 1427